Regional Weather Roundup
Issued by NWS

Home | Current Version | Previous Version | Graphics & Text | Print | Product List | Glossary On
Versions: 1 2 3 4 5 6 7 8 9 10 11 12 13 14 15 16 17 18 19 20 21 22 23 24 25 26 27 28 29 30 31 32 33 34 35 36 37 38 39 40 41 42 43 44 45 46 47 48 49 50
000
ASUS45 KCYS 311910
RWRWY

WYOMING REGIONAL WEATHER ROUNDUP
NATIONAL WEATHER SERVICE CHEYENNE WY
1200 PM MST SAT JAN 31 2015

NOTE:  "FAIR" INDICATES FEW OR NO CLOUDS BELOW 12,000 FEET
WITH NO SIGNIFICANT WEATHER AND/OR OBSTRUCTIONS TO VISIBILITY.

WYZ001-312000-
YELLOWSTONE NATIONAL PARK

CITY           SKY/WX    TMP DP  RH WIND       PRES   REMARKS
LK YELLOWSTONE   N/A      4  -1  80 CALM      30.01F
W YELLOWSTONE  NOT AVBL

$$
WYZ002>013-054>058-071-098>099-312000-
NORTHERN WYOMING

CITY           SKY/WX    TMP DP  RH WIND       PRES   REMARKS
JACKSON        SUNNY     14   9  79 CALM      30.05F
CODY           FAIR      43  14  31 NE10      29.92F
GREYBULL       FOG       28  26  92 E6        29.95F VSB 1/4 WCI  22
WORLAND        FOG       28  24  85 S5        29.95F VSB 1/4 WCI  23
SHERIDAN       FAIR      37  22  54 NW21G29   29.95R WCI  26
BUFFALO        FAIR      39  20  46 N29G41    29.88S WCI  27
GILLETTE       FAIR      42  25  50 S13       29.87F
HULETT           N/A    N/A N/A N/A MISG        N/A
NEWCASTLE      FAIR      36  25  64 S5        29.91F WCI  32

$$
WYZ014>020-022>026-101>103-312000-
CENTRAL WYOMING

CITY           SKY/WX    TMP DP  RH WIND       PRES   REMARKS
BIG PINEY      FAIR      35  17  47 CALM      29.93F
PINEDALE       FAIR      32  16  51 NW14      29.93F WCI  22
DUBOIS         FAIR      37   1  22 NW24G35   29.89S WCI  26
LANDER         FAIR      33  26  75 NE9       29.89S WCI  25
RIVERTON       FAIR      32  27  81 NE6       29.90F WCI  26
CASPER         FAIR      43  19  38 NW13G18   29.86F
DOUGLAS        FAIR      39  25  57 CALM      29.86F

$$
WYZ021-027>030-104>119-312000-
SOUTHERN WYOMING

CITY           SKY/WX    TMP DP  RH WIND       PRES   REMARKS
EVANSTON       PTSUNNY   33  28  81 SW8       30.00F WCI  26
KEMMERER       MOCLDY    32  28  86 W10G16    29.96F WCI  24
FORT BRIDGER   FAIR      37  32  82 W18       30.00F WCI  27
ROCK SPRINGS   FAIR      34  26  72 W20       29.93F WCI  23
DIXON          CLOUDY    33  29  85 W7        29.94S WCI  27
RAWLINS        FAIR      38  23  55 SW9       29.88F WCI  31
SARATOGA       FAIR      32  27  80 CALM      29.89F
LARAMIE        CLOUDY    30  25  81 W6        29.85F WCI  24
CHEYENNE       FLURRIES  32  26  78 NW6       29.84F WCI  26
TORRINGTON     CLOUDY    36  25  64 CALM      29.89F
PINE BLUFFS    LGT SNOW  32  30  93 N6        29.87F WCI  26

$$


USA.gov is the U.S. government's official web portal to all federal, state and local government web resources and services.